BLOCK DM-SL R/B, 54034

Orbit data source: Space-Track

BLOCK DM-SL R/B, 54034 is space debris in GEO originally from a launch on Wed, 12 Oct 2022 UTC launched from the Tyuratam Missile And Space Complex (TTMTR). Debris objects in space refer to the collection of defunct objects orbiting the Earth. Examples of debris include non-operational satellites, rocket bodies, and fragments generated from explosions, collisions, or faulty payload assembly.

Not visible in the next 10 days
Identifier
54034, 2022-131B
Orbit
GEO
Country
Flag of CISCIS
Related business
Manufacturer
RKKE
Mission
Spacecraft
Bus & Motor
BLOK DM2, 11D58M
Mass
2,440 kg wet, 2,440 kg dry
Launch date (UTC)
2022-10-12 (4 years ago)
Launch vehicle
Unknown
Launch site
Tyuratam Missile And Space Complex (TTMTR)
Object type
Payload
Rocket body
Debris
Shape & HBR
Cyl, 4.0 m
Radar Cross Section
26.008 m², Medium (>0.1 m² and < 1m²)

Expand to show TLE details & history
Last TLE update: 18 hours ago

TLE from 18 hours ago
0 BLOCK DM-SL R/B
1 54034U 22131B   26254.05859805 -.00000032  00000-0  00000-0 0  9990
2 54034   3.6095  78.0309 0076882  41.5681 319.4579  0.97747691 13961
Epoch: 2026-09-11T01:24Z
TLE epoch observation values (Epoch: 2026-09-11T01:24:22.871Z)
Latitude
-0°
Longitude
67.28982°
Altitude
36,260.745 km
Speed
3.066 km/s
True Right ascension
05h 13m 53s
True Declination
0° 00' 00"
Sunlit
Object was in daylight at epoch
Visualization orbit readout
Latitude
Unknown
Longitude
Unknown
Altitude
Unknown
Speed
Unknown
Apparent Right ascension
Unknown
Apparent Declination
Unknown
Sunlit
N/A
Visualization observer readout
Local Sidereal Time
11:27:56
Azimuth
Unknown
Elevation
Unknown
Doppler factor
Unknown
Orbital elements
Apogee altitude
36,840.156 km
Perigee altitude
36,180.685 km
Semi-major axis
42,888.558 km
Eccentricity
0.00769
Inclination
3.6095°
RAAN
78.0309°
Arg. of periapsis
41.5681°
True anomaly
318.88104°
Mean anomaly
319.4579°
Eccentric anomaly
319.16989°
Mean motion
0.24436 °/min
Orbital period
1,473.23 mins
BSTAR
0
Loading maneuver chart data...
Computing Atmospheric mass density...
Loading historical data...
Loading historical data...
Loading historical data...
Loading historical data...
Loading historical data...
Loading historical data...
Loading historical data...
Other satellites on launch #131 in the year 2022 (2022-10-12 UTC)

Documentation

Showing up to 5 results
|